Location: Unspecified
(41.1637°N, 24.2901°E)
Time: 13:36:02
(UTC+01:00)

ISS - Pass Details

Date: 01 December 2021
Orbit: 417 x 423 km, 51.6° (Epoch: 29 November)

Event Time Altitude Azimuth Distance (km) Brightness Sun altitude
Rises 17:09:06 0° 308° (NW) 2,380 0.6 -13.7°
Reaches altitude 10° 17:11:48 10° 330° (NNW) 1,513 -0.8 -14.2°
Maximum altitude 17:14:02 16° 12° (NNE) 1,183 -1.8 -14.6°
Enters shadow 17:14:24 16° 20° (NNE) 1,193 -1.8 -14.6°
